START_TIME,STEP,MOV.,A46,t_acc.,A13,t_acc.,M47,t_acc.,A17,t_acc.,A28,t_acc.,M38,t_acc.
1979-07-29 21:00:24.580 ,0,0,,0,4.,4.8,0.,4.8,,0,0.,4.8,0.,4.8
1979-07-29 21:00:29.380 ,0,0,,0,7.,4.8,1.,4.8,,0,0.,4.8,1.,4.8
1979-07-29 21:00:34.180 ,0,0,,0,6.,4.8,0.,4.8,,0,0.,4.8,3.,4.8
1979-07-29 21:00:38.980 ,0,0,,0,0.,4.8,0.,4.8,,0,0.,4.8,2.,4.8
1979-07-29 21:00:43.780 ,0,0,,0,0.,4.8,0.,4.8,,0,0.,4.8,0.,4.8
1979-07-29 21:00:48.580 ,0,0,,0,0.,4.8,0.,4.8,,0,0.,4.8,0.,4.8
1979-07-29 21:00:53.380 ,0,0,,0,0.,4.8,0.,4.8,,0,0.,4.8,2.,4.8
1979-07-29 21:00:58.180 ,0,0,,0,0.,4.8,0.,4.8,,0,0.,4.8,2.,4.8
1979-07-29 21:01:02.980 ,0,0,,0,5.,4.8,0.,4.8,,0,0.,4.8,1.,4.8
1979-07-29 21:01:07.780 ,0,0,,0,4.,4.8,1.,4.8,,0,0.,4.8,1.,4.8
1979-07-29 21:01:12.580 ,0,0,,0,3.,4.8,0.,4.8,,0,0.,4.8,1.,4.8
1979-07-29 21:01:17.380 ,0,0,,0,5.,4.8,0.,4.8,,0,0.,4.8,1.,4.8
1979-07-29 21:01:22.180 ,0,0,,0,1.,4.8,0.,4.8,,0,0.,4.8,3.,4.8
1979-07-29 21:01:26.980 ,0,0,,0,0.,4.8,0.,4.8,,0,0.,4.8,2.,4.8
1979-07-29 21:01:31.780 ,0,0,,0,0.,4.8,0.,4.8,,0,0.,4.8,2.,4.8
1979-07-29 21:01:36.580 ,1,0,,0,0.,4.8,0.,4.8,,0,0.,4.8,1.,4.8
1979-07-29 21:01:41.380 ,1,0,,0,0.,4.8,0.,4.8,,0,0.,4.8,1.,4.8
1979-07-29 21:01:46.180 ,1,0,,0,2.,4.8,0.,4.8,,0,0.,4.8,5.,4.8
1979-07-29 21:01:50.980 ,1,0,,0,4.,4.8,0.,4.8,,0,0.,4.8,0.,4.8
1979-07-29 21:01:55.780 ,1,0,,0,6.,4.8,0.,4.8,,0,0.,4.8,1.,4.8
1979-07-29 21:02:00.580 ,1,0,,0,5.,4.8,3.,4.8,,0,0.,4.8,4.,4.8
1979-07-29 21:02:05.380 ,1,0,,0,10.,4.8,0.,4.8,,0,0.,4.8,2.,4.8
1979-07-29 21:02:10.180 ,1,0,,0,9.,4.8,0.,4.8,,0,0.,4.8,2.,4.8
1979-07-29 21:02:14.980 ,1,0,,0,0.,4.8,0.,4.8,,0,0.,4.8,0.,4.8
1979-07-29 21:02:19.780 ,1,0,,0,0.,4.8,0.,4.8,,0,0.,4.8,2.,4.8
1979-07-29 21:02:24.580 ,2,0,,0,0.,4.8,0.,4.8,,0,0.,4.8,3.,4.8
1979-07-29 21:02:29.380 ,2,0,,0,0.,4.8,0.,4.8,,0,0.,4.8,6.,4.8
1979-07-29 21:02:34.180 ,2,0,,0,1.,4.8,0.,4.8,,0,0.,4.8,4.,4.8
1979-07-29 21:02:38.980 ,2,0,,0,10.,4.8,0.,4.8,,0,0.,4.8,4.,4.8
1979-07-29 21:02:43.780 ,2,0,,0,9.,4.8,0.,4.8,,0,0.,4.8,5.,4.8
1979-07-29 21:02:48.580 ,2,0,,0,5.,4.8,1.,4.8,,0,0.,4.8,4.,4.8
1979-07-29 21:02:53.380 ,2,0,,0,6.,4.8,0.,4.8,,0,1.,4.8,3.,4.8
1979-07-29 21:02:58.180 ,2,0,,0,9.,4.8,0.,4.8,,0,0.,4.8,1.,4.8
1979-07-29 21:03:02.980 ,2,0,,0,0.,4.8,0.,4.8,,0,0.,4.8,7.,4.8
1979-07-29 21:03:07.780 ,2,0,,0,0.,4.8,0.,4.8,,0,0.,4.8,6.,4.8
1979-07-29 21:03:12.580 ,3,0,,0,0.,4.8,0.,4.8,,0,0.,4.8,5.,4.8
1979-07-29 21:03:17.380 ,3,0,,0,0.,4.8,0.,4.8,,0,0.,4.8,4.,4.8
1979-07-29 21:03:22.180 ,3,0,,0,1.,4.8,0.,4.8,,0,0.,4.8,6.,4.8
1979-07-29 21:03:26.980 ,3,0,,0,12.,4.8,0.,4.8,,0,0.,4.8,0.,4.8
1979-07-29 21:03:31.780 ,3,0,,0,6.,4.8,1.,4.8,,0,0.,4.8,4.,4.8
1979-07-29 21:03:36.580 ,3,0,,0,7.,4.8,0.,4.8,,0,0.,4.8,2.,4.8
1979-07-29 21:03:41.380 ,3,0,,0,5.,4.8,0.,4.8,,0,0.,4.8,3.,4.8
1979-07-29 21:03:46.180 ,3,0,,0,5.,4.8,0.,4.8,,0,0.,4.8,2.,4.8
1979-07-29 21:03:50.980 ,3,0,,0,0.,4.8,0.,4.8,,0,0.,4.8,4.,4.8
1979-07-29 21:03:55.780 ,3,0,,0,0.,4.8,0.,4.8,,0,0.,4.8,2.,4.8
1979-07-29 21:04:00.580 ,4,0,,0,0.,4.8,0.,4.8,,0,0.,4.8,1.,4.8
1979-07-29 21:04:05.380 ,4,0,,0,0.,4.8,0.,4.8,,0,0.,4.8,1.,4.8
1979-07-29 21:04:10.180 ,4,0,,0,1.,4.8,0.,4.8,,0,0.,4.8,0.,4.8
1979-07-29 21:04:14.980 ,4,0,,0,1.,4.8,0.,4.8,,0,0.,4.8,0.,4.8
1979-07-29 21:04:19.780 ,4,0,,0,4.,4.8,0.,4.8,,0,0.,4.8,0.,4.8
1979-07-29 21:04:24.580 ,4,0,,0,1.,4.8,0.,4.8,,0,0.,4.8,0.,4.8
1979-07-29 21:04:29.380 ,4,0,,0,2.,4.8,0.,4.8,,0,0.,4.8,0.,4.8
1979-07-29 21:04:34.180 ,4,0,,0,3.,4.8,0.,4.8,,0,0.,4.8,0.,4.8
1979-07-29 21:04:38.980 ,4,0,,0,1.,4.8,0.,4.8,,0,0.,4.8,0.,4.8
1979-07-29 21:04:43.780 ,4,0,,0,0.,4.8,0.,4.8,,0,0.,4.8,0.,4.8
1979-07-29 21:04:48.580 ,5,0,,0,0.,4.8,0.,4.8,,0,0.,4.8,0.,4.8
1979-07-29 21:04:53.380 ,5,0,,0,0.,4.8,0.,4.8,,0,0.,4.8,1.,4.8
1979-07-29 21:04:58.180 ,5,0,,0,1.,4.8,0.,4.8,,0,0.,4.8,1.,4.8
1979-07-29 21:05:02.980 ,5,0,,0,3.,4.8,0.,4.8,,0,0.,4.8,0.,4.8
1979-07-29 21:05:07.780 ,5,0,,0,11.,4.8,0.,4.8,,0,0.,4.8,2.,4.8
1979-07-29 21:05:12.580 ,5,0,,0,6.,4.8,0.,4.8,,0,0.,4.8,1.,4.8
1979-07-29 21:05:17.380 ,5,0,,0,8.,4.8,1.,4.8,,0,0.,4.8,0.,4.8
1979-07-29 21:05:22.180 ,5,0,,0,4.,4.8,0.,4.8,,0,0.,4.8,0.,4.8
1979-07-29 21:05:26.980 ,5,0,,0,0.,4.8,0.,4.8,,0,0.,4.8,0.,4.8
1979-07-29 21:05:31.780 ,5,0,,0,0.,4.8,0.,4.8,,0,0.,4.8,1.,4.8
1979-07-29 21:05:36.580 ,6,0,,0,0.,4.8,0.,4.8,,0,0.,4.8,0.,4.8
1979-07-29 21:05:41.380 ,6,0,,0,0.,4.8,0.,4.8,,0,0.,4.8,0.,4.8
1979-07-29 21:05:46.180 ,6,0,,0,1.,4.8,0.,4.8,,0,0.,4.8,2.,4.8
1979-07-29 21:05:50.980 ,6,0,,0,6.,4.8,0.,4.8,,0,0.,4.8,1.,4.8
1979-07-29 21:05:55.780 ,6,0,,0,4.,4.8,0.,4.8,,0,0.,4.8,1.,4.8
1979-07-29 21:06:00.580 ,6,0,,0,7.,4.8,1.,4.8,,0,0.,4.8,5.,4.8
1979-07-29 21:06:05.380 ,6,0,,0,6.,4.8,0.,4.8,,0,0.,4.8,3.,4.8
1979-07-29 21:06:10.180 ,6,0,,0,4.,4.8,0.,4.8,,0,0.,4.8,2.,4.8
1979-07-29 21:06:14.980 ,6,0,,0,0.,4.8,0.,4.8,,0,0.,4.8,0.,4.8
1979-07-29 21:06:19.780 ,6,0,,0,1.,4.8,0.,4.8,,0,0.,4.8,2.,4.8
1979-07-29 21:06:24.580 ,7,0,,0,,0,,0,,0,,0,,0
1979-07-29 21:06:29.380 ,7,0,,0,0.,4.8,0.,4.8,,0,0.,4.8,0.,4.8
1979-07-29 21:06:34.180 ,7,0,,0,2.,4.8,0.,4.8,,0,0.,4.8,0.,4.8
1979-07-29 21:06:38.980 ,7,0,,0,10.,4.8,0.,4.8,,0,0.,4.8,0.,4.8
1979-07-29 21:06:43.780 ,7,0,,0,7.,4.8,0.,4.8,,0,0.,4.8,0.,4.8
1979-07-29 21:06:48.580 ,7,0,,0,16.,4.8,0.,4.8,,0,0.,4.8,0.,4.8
1979-07-29 21:06:53.380 ,7,0,,0,9.,4.8,0.,4.8,,0,0.,4.8,0.,4.8
1979-07-29 21:06:58.180 ,7,0,,0,10.,4.8,0.,4.8,,0,0.,4.8,0.,4.8
1979-07-29 21:07:02.980 ,7,0,,0,0.,4.8,0.,4.8,,0,0.,4.8,0.,4.8
1979-07-29 21:07:07.780 ,7,0,,0,1.,4.8,0.,4.8,,0,0.,4.8,0.,4.8
1979-07-29 21:07:12.580 ,3,1,,0,0.,4.8,0.,4.8,,0,0.,4.8,0.,4.8
1979-07-29 21:07:17.380 ,3,1,,0,0.,4.8,0.,4.8,,0,0.,4.8,0.,4.8
1979-07-29 21:07:22.180 ,3,1,,0,0.,4.8,0.,4.8,,0,0.,4.8,1.,4.8
1979-07-29 21:07:26.980 ,3,1,,0,2.,4.8,0.,4.8,,0,0.,4.8,0.,4.8
1979-07-29 21:07:31.780 ,3,1,,0,11.,4.8,0.,4.8,,0,0.,4.8,4.,4.8
1979-07-29 21:07:36.580 ,0,1,,0,6.,4.8,0.,4.8,,0,0.,4.8,6.,4.8
1979-07-29 21:07:41.380 ,0,1,,0,5.,4.8,0.,4.8,,0,0.,4.8,3.,4.8
1979-07-29 21:07:46.180 ,0,1,,0,8.,4.8,1.,4.8,,0,0.,4.8,3.,4.8
1979-07-29 21:07:50.980 ,0,1,,0,0.,4.8,0.,4.8,,0,0.,4.8,5.,4.8
1979-07-29 21:07:55.780 ,0,1,,0,0.,4.8,0.,4.8,,0,0.,4.8,2.,4.8
1979-07-29 21:08:00.580 ,4,1,,0,0.,4.8,0.,4.8,,0,0.,4.8,2.,4.8
1979-07-29 21:08:05.380 ,4,1,,0,0.,4.8,0.,4.8,,0,0.,4.8,2.,4.8
1979-07-29 21:08:10.180 ,4,1,,0,1.,4.8,0.,4.8,,0,0.,4.8,9.,4.8
1979-07-29 21:08:14.980 ,4,1,,0,6.,4.8,0.,4.8,,0,0.,4.8,3.,4.8
1979-07-29 21:08:19.780 ,4,1,,0,1.,4.8,0.,4.8,,0,0.,4.8,0.,4.8
1979-07-29 21:08:24.580 ,7,1,,0,1.,4.8,0.,4.8,,0,0.,4.8,0.,4.8
1979-07-29 21:08:29.380 ,7,1,,0,4.,4.8,0.,4.8,,0,0.,4.8,3.,4.8
1979-07-29 21:08:34.180 ,7,1,,0,10.,4.8,1.,4.8,,0,0.,4.8,3.,4.8
1979-07-29 21:08:38.980 ,7,1,,0,0.,4.8,0.,4.8,,0,0.,4.8,0.,4.8
1979-07-29 21:08:43.780 ,7,1,,0,0.,4.8,0.,4.8,,0,0.,4.8,0.,4.8
1979-07-29 21:08:48.580 ,3,1,,0,0.,4.8,0.,4.8,,0,0.,4.8,0.,4.8
1979-07-29 21:08:53.380 ,3,1,,0,0.,4.8,0.,4.8,,0,0.,4.8,1.,4.8
1979-07-29 21:08:58.180 ,3,1,,0,1.,4.8,0.,4.8,,0,0.,4.8,0.,4.8
1979-07-29 21:09:02.980 ,3,1,,0,4.,4.8,0.,4.8,,0,0.,4.8,0.,4.8
1979-07-29 21:09:07.780 ,3,1,,0,7.,4.8,0.,4.8,,0,0.,4.8,1.,4.8
1979-07-29 21:09:12.580 ,0,1,,0,11.,4.8,1.,4.8,,0,0.,4.8,8.,4.8
1979-07-29 21:09:17.380 ,0,1,,0,11.,4.8,0.,4.8,,0,0.,4.8,5.,4.8
1979-07-29 21:09:22.180 ,0,1,,0,11.,4.8,1.,4.8,,0,0.,4.8,1.,4.8
1979-07-29 21:09:26.980 ,0,1,,0,0.,4.8,0.,4.8,,0,0.,4.8,0.,4.8
1979-07-29 21:09:31.780 ,0,1,,0,0.,4.8,0.,4.8,,0,0.,4.8,2.,4.8
1979-07-29 21:09:36.580 ,4,1,,0,0.,4.8,0.,4.8,,0,0.,4.8,2.,4.8
1979-07-29 21:09:41.380 ,4,1,,0,0.,4.8,0.,4.8,,0,0.,4.8,4.,4.8
1979-07-29 21:09:46.180 ,4,1,,0,2.,4.8,0.,4.8,,0,0.,4.8,8.,4.8
1979-07-29 21:09:50.980 ,4,1,,0,3.,4.8,0.,4.8,,0,0.,4.8,2.,4.8
1979-07-29 21:09:55.780 ,4,1,,0,1.,4.8,0.,4.8,,0,0.,4.8,2.,4.8
1979-07-29 21:10:00.580 ,7,1,,0,2.,4.8,1.,4.8,,0,0.,4.8,0.,4.8
1979-07-29 21:10:05.380 ,7,1,,0,2.,4.8,0.,4.8,,0,0.,4.8,0.,4.8
1979-07-29 21:10:10.180 ,7,1,,0,8.,4.8,0.,4.8,,0,0.,4.8,3.,4.8
1979-07-29 21:10:14.980 ,7,1,,0,0.,4.8,0.,4.8,,0,0.,4.8,0.,4.8
1979-07-29 21:10:19.780 ,7,1,,0,0.,4.8,0.,4.8,,0,0.,4.8,0.,4.8
1979-07-29 21:10:24.580 ,3,1,,0,0.,4.8,0.,4.8,,0,0.,4.8,2.,4.8
1979-07-29 21:10:29.380 ,3,1,,0,0.,4.8,0.,4.8,,0,0.,4.8,3.,4.8
1979-07-29 21:10:34.180 ,3,1,,0,0.,4.8,0.,4.8,,0,0.,4.8,0.,4.8
1979-07-29 21:10:38.980 ,3,1,,0,5.,4.8,0.,4.8,,0,0.,4.8,0.,4.8
1979-07-29 21:10:43.780 ,3,1,,0,7.,4.8,0.,4.8,,0,0.,4.8,3.,4.8
1979-07-29 21:10:48.580 ,0,1,,0,6.,4.8,0.,4.8,,0,0.,4.8,0.,4.8
1979-07-29 21:10:53.380 ,0,1,,0,13.,4.8,1.,4.8,,0,0.,4.8,4.,4.8
1979-07-29 21:10:58.180 ,0,1,,0,8.,4.8,0.,4.8,,0,0.,4.8,2.,4.8
1979-07-29 21:11:02.980 ,0,1,,0,0.,4.8,0.,4.8,,0,0.,4.8,0.,4.8
1979-07-29 21:11:07.780 ,0,1,,0,0.,4.8,0.,4.8,,0,0.,4.8,1.,4.8
1979-07-29 21:11:12.580 ,4,1,,0,0.,4.8,0.,4.8,,0,0.,4.8,3.,4.8
1979-07-29 21:11:17.380 ,4,1,,0,0.,4.8,0.,4.8,,0,0.,4.8,5.,4.8
1979-07-29 21:11:22.180 ,4,1,,0,4.,4.8,0.,4.8,,0,0.,4.8,2.,4.8
1979-07-29 21:11:26.980 ,4,1,,0,6.,4.8,1.,4.8,,0,0.,4.8,2.,4.8
1979-07-29 21:11:31.780 ,4,1,,0,5.,4.8,0.,4.8,,0,0.,4.8,0.,4.8
1979-07-29 21:11:36.580 ,7,1,,0,1.,4.8,0.,4.8,,0,0.,4.8,1.,4.8
1979-07-29 21:11:41.380 ,7,1,,0,4.,4.8,0.,4.8,,0,0.,4.8,1.,4.8
1979-07-29 21:11:46.180 ,7,1,,0,6.,4.8,0.,4.8,,0,0.,4.8,4.,4.8
1979-07-29 21:11:50.980 ,7,1,,0,0.,4.8,0.,4.8,,0,0.,4.8,0.,4.8
1979-07-29 21:11:55.780 ,7,1,,0,0.,4.8,0.,4.8,,0,0.,4.8,0.,4.8
1979-07-29 21:12:00.580 ,3,1,,0,0.,4.8,0.,4.8,,0,0.,4.8,1.,4.8
1979-07-29 21:12:05.380 ,3,1,,0,0.,4.8,0.,4.8,,0,0.,4.8,2.,4.8
1979-07-29 21:12:10.180 ,3,1,,0,2.,4.8,0.,4.8,,0,0.,4.8,1.,4.8
1979-07-29 21:12:14.980 ,3,1,,0,4.,4.8,0.,4.8,,0,0.,4.8,0.,4.8
1979-07-29 21:12:19.780 ,3,1,,0,8.,4.8,1.,4.8,,0,0.,4.8,1.,4.8
1979-07-29 21:12:24.580 ,0,1,,0,15.,4.8,0.,4.8,,0,0.,4.8,4.,4.8
1979-07-29 21:12:29.380 ,0,1,,0,12.,4.8,0.,4.8,,0,0.,4.8,5.,4.8
1979-07-29 21:12:34.180 ,0,1,,0,8.,4.8,0.,4.8,,0,0.,4.8,3.,4.8
1979-07-29 21:12:38.980 ,0,1,,0,1.,4.8,0.,4.8,,0,0.,4.8,1.,4.8
1979-07-29 21:12:43.780 ,0,1,,0,0.,4.8,0.,4.8,,0,0.,4.8,0.,4.8
1979-07-29 21:12:48.580 ,4,1,,0,0.,4.8,0.,4.8,,0,0.,4.8,2.,4.8
1979-07-29 21:12:53.380 ,4,1,,0,0.,4.8,0.,4.8,,0,0.,4.8,7.,4.8
1979-07-29 21:12:58.180 ,4,1,,0,2.,4.8,1.,4.8,,0,0.,4.8,3.,4.8
1979-07-29 21:13:02.980 ,4,1,,0,3.,4.8,0.,4.8,,0,0.,4.8,3.,4.8
1979-07-29 21:13:07.780 ,4,1,,0,4.,4.8,0.,4.8,,0,0.,4.8,0.,4.8
1979-07-29 21:13:12.580 ,7,1,,0,7.,4.8,0.,4.8,,0,0.,4.8,0.,4.8
1979-07-29 21:13:17.380 ,7,1,,0,2.,4.8,0.,4.8,,0,0.,4.8,0.,4.8
1979-07-29 21:13:22.180 ,7,1,,0,4.,4.8,0.,4.8,,0,0.,4.8,1.,4.8
1979-07-29 21:13:26.980 ,7,1,,0,0.,4.8,0.,4.8,,0,0.,4.8,0.,4.8
1979-07-29 21:13:31.780 ,7,1,,0,0.,4.8,0.,4.8,,0,0.,4.8,0.,4.8
1979-07-29 21:13:36.580 ,3,1,,0,0.,4.8,0.,4.8,,0,0.,4.8,1.,4.8
1979-07-29 21:13:41.380 ,3,1,,0,0.,4.8,0.,4.8,,0,0.,4.8,1.,4.8
1979-07-29 21:13:46.180 ,3,1,,0,1.,4.8,0.,4.8,,0,0.,4.8,0.,4.8
1979-07-29 21:13:50.980 ,3,1,,0,4.,4.8,0.,4.8,,0,0.,4.8,0.,4.8
1979-07-29 21:13:55.780 ,3,1,,0,5.,4.8,0.,4.8,,0,0.,4.8,6.,4.8
1979-07-29 21:14:00.580 ,0,1,,0,8.,4.8,0.,4.8,,0,0.,4.8,9.,4.8
1979-07-29 21:14:05.380 ,0,1,,0,9.,4.8,0.,4.8,,0,0.,4.8,5.,4.8
1979-07-29 21:14:10.180 ,0,1,,0,5.,4.8,0.,4.8,,0,0.,4.8,2.,4.8
1979-07-29 21:14:14.980 ,0,1,,0,0.,4.8,0.,4.8,,0,0.,4.8,2.,4.8
1979-07-29 21:14:19.780 ,0,1,,0,0.,4.8,0.,4.8,,0,0.,4.8,1.,4.8
1979-07-29 21:14:24.580 ,4,1,,0,0.,4.8,0.,4.8,,0,0.,4.8,0.,4.8
1979-07-29 21:14:29.380 ,4,1,,0,0.,4.8,0.,4.8,,0,0.,4.8,0.,4.8
1979-07-29 21:14:34.180 ,4,1,,0,2.,4.8,0.,4.8,,0,0.,4.8,6.,4.8
1979-07-29 21:14:38.980 ,4,1,,0,8.,4.8,0.,4.8,,0,0.,4.8,1.,4.8
1979-07-29 21:14:43.780 ,4,1,,0,4.,4.8,0.,4.8,,0,0.,4.8,1.,4.8
1979-07-29 21:14:48.580 ,7,1,,0,3.,4.8,0.,4.8,,0,0.,4.8,0.,4.8
1979-07-29 21:14:53.380 ,7,1,,0,3.,4.8,0.,4.8,,0,0.,4.8,1.,4.8
1979-07-29 21:14:58.180 ,7,1,,0,4.,4.8,0.,4.8,,0,0.,4.8,1.,4.8
1979-07-29 21:15:02.980 ,7,1,,0,0.,4.8,0.,4.8,,0,0.,4.8,0.,4.8
1979-07-29 21:15:07.780 ,7,1,,0,1.,4.8,0.,4.8,,0,0.,4.8,0.,4.8
1979-07-29 21:15:12.580 ,3,1,,0,0.,4.8,0.,4.8,,0,0.,4.8,0.,4.8
1979-07-29 21:15:17.380 ,3,1,,0,0.,4.8,0.,4.8,,0,0.,4.8,1.,4.8
1979-07-29 21:15:22.180 ,3,1,,0,0.,4.8,0.,4.8,,0,0.,4.8,0.,4.8
1979-07-29 21:15:26.980 ,3,1,,0,4.,4.8,0.,4.8,,0,0.,4.8,0.,4.8
1979-07-29 21:15:31.780 ,3,1,,0,6.,4.8,0.,4.8,,0,0.,4.8,1.,4.8
1979-07-29 21:15:36.580 ,0,1,,0,9.,4.8,0.,4.8,,0,0.,4.8,3.,4.8
1979-07-29 21:15:41.380 ,0,1,,0,10.,4.8,0.,4.8,,0,0.,4.8,3.,4.8
1979-07-29 21:15:46.180 ,0,1,,0,7.,4.8,0.,4.8,,0,0.,4.8,4.,4.8
1979-07-29 21:15:50.980 ,0,1,,0,0.,4.8,0.,4.8,,0,0.,4.8,1.,4.8
1979-07-29 21:15:55.780 ,0,1,,0,0.,4.8,0.,4.8,,0,0.,4.8,3.,4.8
1979-07-29 21:16:00.580 ,4,1,,0,0.,4.8,0.,4.8,,0,0.,4.8,2.,4.8
1979-07-29 21:16:05.380 ,4,1,,0,0.,4.8,0.,4.8,,0,0.,4.8,3.,4.8
1979-07-29 21:16:10.180 ,4,1,,0,2.,4.8,1.,4.8,,0,0.,4.8,2.,4.8
1979-07-29 21:16:14.980 ,4,1,,0,9.,4.8,0.,4.8,,0,0.,4.8,1.,4.8
1979-07-29 21:16:19.780 ,4,1,,0,4.,4.8,0.,4.8,,0,0.,4.8,3.,4.8
1979-07-29 21:16:24.580 ,7,1,,0,1.,4.8,0.,4.8,,0,0.,4.8,0.,4.8
1979-07-29 21:16:29.380 ,7,1,,0,9.,4.8,1.,4.8,,0,0.,4.8,0.,4.8
1979-07-29 21:16:34.180 ,7,1,,0,3.,4.8,0.,4.8,,0,0.,4.8,0.,4.8
1979-07-29 21:16:38.980 ,7,1,,0,0.,4.8,0.,4.8,,0,0.,4.8,0.,4.8
1979-07-29 21:16:43.780 ,7,1,,0,0.,4.8,1.,4.8,,0,0.,4.8,0.,4.8
1979-07-29 21:16:48.580 ,3,1,,0,0.,4.8,0.,4.8,,0,0.,4.8,0.,4.8
1979-07-29 21:16:53.380 ,3,1,,0,0.,4.8,0.,4.8,,0,0.,4.8,2.,4.8
1979-07-29 21:16:58.180 ,3,1,,0,0.,4.8,0.,4.8,,0,0.,4.8,2.,4.8
1979-07-29 21:17:02.980 ,3,1,,0,1.,4.8,0.,4.8,,0,0.,4.8,1.,4.8
1979-07-29 21:17:07.780 ,3,1,,0,5.,4.8,1.,4.8,,0,1.,4.8,2.,4.8
1979-07-29 21:17:12.580 ,0,1,,0,11.,4.8,0.,4.8,,0,0.,4.8,2.,4.8
1979-07-29 21:17:17.380 ,0,1,,0,12.,4.8,1.,4.8,,0,0.,4.8,1.,4.8
1979-07-29 21:17:22.180 ,0,1,,0,13.,4.8,1.,4.8,,0,0.,4.8,4.,4.8
1979-07-29 21:17:26.980 ,0,1,,0,0.,4.8,0.,4.8,,0,0.,4.8,1.,4.8
1979-07-29 21:17:31.780 ,0,1,,0,0.,4.8,0.,4.8,,0,0.,4.8,1.,4.8
1979-07-29 21:17:36.580 ,0,0,,0,0.,4.8,0.,4.8,,0,0.,4.8,3.,4.8
1979-07-29 21:17:41.380 ,0,0,,0,0.,4.8,0.,4.8,,0,0.,4.8,4.,4.8
1979-07-29 21:17:46.180 ,0,0,,0,1.,4.8,0.,4.8,,0,0.,4.8,2.,4.8
1979-07-29 21:17:50.980 ,0,0,,0,3.,4.8,0.,4.8,,0,0.,4.8,3.,4.8
1979-07-29 21:17:55.780 ,0,0,,0,4.,4.8,0.,4.8,,0,0.,4.8,1.,4.8
1979-07-29 21:18:00.580 ,0,0,,0,2.,4.8,0.,4.8,,0,0.,4.8,0.,4.8
1979-07-29 21:18:05.380 ,0,0,,0,7.,4.8,1.,4.8,,0,0.,4.8,0.,4.8
1979-07-29 21:18:10.180 ,0,0,,0,5.,4.8,1.,4.8,,0,0.,4.8,1.,4.8
1979-07-29 21:18:14.980 ,0,0,,0,0.,4.8,0.,4.8,,0,1.,4.8,0.,4.8
1979-07-29 21:18:19.780 ,0,0,,0,0.,4.8,0.,4.8,,0,0.,4.8,0.,4.8
1979-07-29 21:18:24.580 ,5,0,,0,0.,4.8,0.,4.8,,0,0.,4.8,1.,4.8
1979-07-29 21:18:29.380 ,5,0,,0,0.,4.8,0.,4.8,,0,0.,4.8,1.,4.8
1979-07-29 21:18:34.180 ,5,0,,0,0.,4.8,0.,4.8,,0,0.,4.8,0.,4.8
1979-07-29 21:18:38.980 ,5,0,,0,3.,4.8,0.,4.8,,0,0.,4.8,2.,4.8
1979-07-29 21:18:43.780 ,5,0,,0,6.,4.8,0.,4.8,,0,0.,4.8,0.,4.8
1979-07-29 21:18:48.580 ,5,0,,0,2.,4.8,0.,4.8,,0,0.,4.8,1.,4.8
1979-07-29 21:18:53.380 ,5,0,,0,1.,4.8,0.,4.8,,0,0.,4.8,0.,4.8
1979-07-29 21:18:58.180 ,5,0,,0,4.,4.8,0.,4.8,,0,0.,4.8,1.,4.8
1979-07-29 21:19:02.980 ,5,0,,0,0.,4.8,0.,4.8,,0,0.,4.8,2.,4.8
1979-07-29 21:19:07.780 ,5,0,,0,0.,4.8,0.,4.8,,0,0.,4.8,1.,4.8
1979-07-29 21:19:12.580 ,4,0,,0,0.,4.8,0.,4.8,,0,0.,4.8,0.,4.8
1979-07-29 21:19:17.380 ,4,0,,0,0.,4.8,0.,4.8,,0,0.,4.8,0.,4.8
1979-07-29 21:19:22.180 ,4,0,,0,1.,4.8,0.,4.8,,0,0.,4.8,2.,4.8
1979-07-29 21:19:26.980 ,4,0,,0,0.,4.8,0.,4.8,,0,0.,4.8,0.,4.8
1979-07-29 21:19:31.780 ,4,0,,0,4.,4.8,0.,4.8,,0,0.,4.8,0.,4.8
1979-07-29 21:19:36.580 ,4,0,,0,2.,4.8,0.,4.8,,0,0.,4.8,2.,4.8
1979-07-29 21:19:41.380 ,4,0,,0,1.,4.8,0.,4.8,,0,0.,4.8,0.,4.8
1979-07-29 21:19:46.180 ,4,0,,0,5.,4.8,0.,4.8,,0,0.,4.8,0.,4.8
1979-07-29 21:19:50.980 ,4,0,,0,0.,4.8,0.,4.8,,0,0.,4.8,0.,4.8
1979-07-29 21:19:55.780 ,4,0,,0,0.,4.8,0.,4.8,,0,0.,4.8,0.,4.8
1979-07-29 21:20:00.580 ,3,0,,0,0.,4.8,0.,4.8,,0,0.,4.8,1.,4.8
1979-07-29 21:20:05.380 ,3,0,,0,0.,4.8,0.,4.8,,0,1.,4.8,0.,4.8
1979-07-29 21:20:10.180 ,3,0,,0,0.,4.8,0.,4.8,,0,0.,4.8,0.,4.8
1979-07-29 21:20:14.980 ,3,0,,0,9.,4.8,0.,4.8,,0,0.,4.8,1.,4.8
1979-07-29 21:20:19.780 ,3,0,,0,8.,4.8,0.,4.8,,0,0.,4.8,3.,4.8
1979-07-29 21:20:24.580 ,3,0,,0,8.,4.8,0.,4.8,,0,0.,4.8,2.,4.8
1979-07-29 21:20:29.380 ,3,0,,0,9.,4.8,1.,4.8,,0,0.,4.8,5.,4.8
1979-07-29 21:20:34.180 ,3,0,,0,5.,4.8,1.,4.8,,0,1.,4.8,2.,4.8
1979-07-29 21:20:38.980 ,3,0,,0,0.,4.8,0.,4.8,,0,0.,4.8,1.,4.8
1979-07-29 21:20:43.780 ,3,0,,0,0.,4.8,0.,4.8,,0,0.,4.8,1.,4.8
1979-07-29 21:20:48.580 ,2,0,,0,0.,4.8,0.,4.8,,0,0.,4.8,2.,4.8
1979-07-29 21:20:53.380 ,2,0,,0,0.,4.8,0.,4.8,,0,0.,4.8,5.,4.8
1979-07-29 21:20:58.180 ,2,0,,0,1.,4.8,0.,4.8,,0,0.,4.8,3.,4.8
1979-07-29 21:21:02.980 ,2,0,,0,12.,4.8,1.,4.8,,0,0.,4.8,3.,4.8
1979-07-29 21:21:07.780 ,2,0,,0,14.,4.8,0.,4.8,,0,0.,4.8,6.,4.8
1979-07-29 21:21:12.580 ,2,0,,0,5.,4.8,0.,4.8,,0,0.,4.8,6.,4.8
1979-07-29 21:21:17.380 ,2,0,,0,8.,4.8,2.,4.8,,0,0.,4.8,7.,4.8
1979-07-29 21:21:22.180 ,2,0,,0,10.,4.8,0.,4.8,,0,0.,4.8,4.,4.8
1979-07-29 21:21:26.980 ,2,0,,0,0.,4.8,0.,4.8,,0,0.,4.8,4.,4.8
1979-07-29 21:21:31.780 ,2,0,,0,0.,4.8,0.,4.8,,0,0.,4.8,3.,4.8
1979-07-29 21:21:36.580 ,1,0,,0,0.,4.8,0.,4.8,,0,0.,4.8,3.,4.8
1979-07-29 21:21:41.380 ,1,0,,0,0.,4.8,0.,4.8,,0,0.,4.8,7.,4.8
1979-07-29 21:21:46.180 ,1,0,,0,1.,4.8,0.,4.8,,0,0.,4.8,3.,4.8
1979-07-29 21:21:50.980 ,1,0,,0,6.,4.8,0.,4.8,,0,0.,4.8,11.,4.8
1979-07-29 21:21:55.780 ,1,0,,0,11.,4.8,2.,4.8,,0,0.,4.8,5.,4.8
1979-07-29 21:22:00.580 ,0,0,,0,8.,4.8,0.,4.8,,0,0.,4.8,6.,4.8
1979-07-29 21:22:05.380 ,0,0,,0,11.,4.8,1.,4.8,,0,0.,4.8,2.,4.8
1979-07-29 21:22:10.180 ,0,0,,0,9.,4.8,2.,4.8,,0,0.,4.8,5.,4.8
1979-07-29 21:22:14.980 ,0,0,,0,0.,4.8,0.,4.8,,0,0.,4.8,1.,4.8
1979-07-29 21:22:19.780 ,0,0,,0,0.,4.8,0.,4.8,,0,0.,4.8,5.,4.8
1979-07-29 21:22:48.580 ,0,0,,0,7.,4.8,0.,4.8,,0,0.,4.8,3.,4.8
1979-07-29 21:22:53.380 ,0,0,,0,7.,4.8,0.,4.8,,0,0.,4.8,1.,4.8
1979-07-29 21:22:58.180 ,0,0,,0,5.,4.8,0.,4.8,,0,0.,4.8,3.,4.8
1979-07-29 21:23:02.980 ,0,0,,0,0.,4.8,0.,4.8,,0,0.,4.8,1.,4.8
1979-07-29 21:23:07.780 ,0,0,,0,1.,4.8,0.,4.8,,0,0.,4.8,1.,4.8
1979-07-29 21:23:12.580 ,0,0,,0,,0,,0,,0,,0,,0
1979-07-29 21:23:17.380 ,0,0,,0,0.,4.8,0.,4.8,,0,0.,4.8,0.,4.8
1979-07-29 21:23:22.180 ,0,0,,0,2.,4.8,0.,4.8,,0,0.,4.8,1.,4.8
1979-07-29 21:23:26.980 ,0,0,,0,6.,4.8,0.,4.8,,0,0.,4.8,1.,4.8
1979-07-29 21:23:31.780 ,0,0,,0,10.,4.8,0.,4.8,,0,0.,4.8,2.,4.8
1979-07-29 21:23:36.580 ,0,0,,0,7.,4.8,0.,4.8,,0,0.,4.8,5.,4.8
1979-07-29 21:23:41.380 ,0,0,,0,10.,4.8,1.,4.8,,0,0.,4.8,1.,4.8
1979-07-29 21:23:46.180 ,0,0,,0,7.,4.8,0.,4.8,,0,0.,4.8,0.,4.8
1979-07-29 21:23:50.980 ,0,0,,0,0.,4.8,0.,4.8,,0,0.,4.8,2.,4.8
1979-07-29 21:23:55.780 ,0,0,,0,0.,4.8,0.,4.8,,0,0.,4.8,2.,4.8
1979-07-29 21:24:00.580 ,1,0,,0,0.,4.8,0.,4.8,,0,0.,4.8,1.,4.8
1979-07-29 21:24:05.380 ,1,0,,0,0.,4.8,0.,4.8,,0,0.,4.8,1.,4.8
1979-07-29 21:24:10.180 ,1,0,,0,2.,4.8,0.,4.8,,0,0.,4.8,4.,4.8
1979-07-29 21:24:14.980 ,1,0,,0,9.,4.8,1.,4.8,,0,0.,4.8,3.,4.8
1979-07-29 21:24:19.780 ,1,0,,0,2.,4.8,0.,4.8,,0,0.,4.8,4.,4.8
1979-07-29 21:24:24.580 ,1,0,,0,5.,4.8,1.,4.8,,0,0.,4.8,8.,4.8
1979-07-29 21:24:29.380 ,1,0,,0,9.,4.8,1.,4.8,,0,0.,4.8,1.,4.8
1979-07-29 21:24:34.180 ,1,0,,0,9.,4.8,0.,4.8,,0,0.,4.8,2.,4.8
1979-07-29 21:24:38.980 ,1,0,,0,0.,4.8,0.,4.8,,0,0.,4.8,3.,4.8
1979-07-29 21:24:43.780 ,1,0,,0,0.,4.8,0.,4.8,,0,0.,4.8,3.,4.8
1979-07-29 21:24:48.580 ,2,0,,0,0.,4.8,0.,4.8,,0,0.,4.8,7.,4.8
1979-07-29 21:24:53.380 ,2,0,,0,1.,4.8,0.,4.8,,0,0.,4.8,8.,4.8
1979-07-29 21:24:58.180 ,2,0,,0,2.,4.8,1.,4.8,,0,0.,4.8,3.,4.8
1979-07-29 21:25:02.980 ,2,0,,0,10.,4.8,1.,4.8,,0,0.,4.8,3.,4.8
1979-07-29 21:25:07.780 ,2,0,,0,13.,4.8,1.,4.8,,0,0.,4.8,2.,4.8
1979-07-29 21:25:12.580 ,2,0,,0,12.,4.8,0.,4.8,,0,0.,4.8,3.,4.8
1979-07-29 21:25:17.380 ,2,0,,0,9.,4.8,0.,4.8,,0,0.,4.8,5.,4.8
1979-07-29 21:25:22.180 ,2,0,,0,5.,4.8,1.,4.8,,0,0.,4.8,4.,4.8
1979-07-29 21:25:26.980 ,2,0,,0,0.,4.8,0.,4.8,,0,0.,4.8,4.,4.8
1979-07-29 21:25:31.780 ,2,0,,0,0.,4.8,0.,4.8,,0,0.,4.8,0.,4.8
1979-07-29 21:25:36.580 ,3,0,,0,0.,4.8,0.,4.8,,0,0.,4.8,4.,4.8
1979-07-29 21:25:41.380 ,3,0,,0,0.,4.8,0.,4.8,,0,0.,4.8,1.,4.8
1979-07-29 21:25:46.180 ,3,0,,0,1.,4.8,0.,4.8,,0,0.,4.8,0.,4.8
1979-07-29 21:25:50.980 ,3,0,,0,8.,4.8,0.,4.8,,0,0.,4.8,2.,4.8
1979-07-29 21:25:55.780 ,3,0,,0,3.,4.8,0.,4.8,,0,0.,4.8,1.,4.8
1979-07-29 21:26:00.580 ,3,0,,0,3.,4.8,0.,4.8,,0,0.,4.8,5.,4.8
1979-07-29 21:26:05.380 ,3,0,,0,5.,4.8,1.,4.8,,0,0.,4.8,3.,4.8
1979-07-29 21:26:10.180 ,3,0,,0,11.,4.8,1.,4.8,,0,0.,4.8,4.,4.8
1979-07-29 21:26:14.980 ,3,0,,0,0.,4.8,0.,4.8,,0,0.,4.8,3.,4.8
1979-07-29 21:26:19.780 ,3,0,,0,0.,4.8,0.,4.8,,0,0.,4.8,2.,4.8
1979-07-29 21:26:24.580 ,4,0,,0,0.,4.8,0.,4.8,,0,0.,4.8,2.,4.8
1979-07-29 21:26:29.380 ,4,0,,0,0.,4.8,0.,4.8,,0,0.,4.8,1.,4.8
1979-07-29 21:26:34.180 ,4,0,,0,1.,4.8,0.,4.8,,0,0.,4.8,0.,4.8
1979-07-29 21:26:38.980 ,4,0,,0,2.,4.8,0.,4.8,,0,0.,4.8,1.,4.8
1979-07-29 21:26:43.780 ,4,0,,0,1.,4.8,0.,4.8,,0,0.,4.8,0.,4.8
1979-07-29 21:26:48.580 ,4,0,,0,3.,4.8,0.,4.8,,0,0.,4.8,1.,4.8
1979-07-29 21:26:53.380 ,4,0,,0,4.,4.8,0.,4.8,,0,0.,4.8,0.,4.8
1979-07-29 21:26:58.180 ,4,0,,0,2.,4.8,0.,4.8,,0,0.,4.8,1.,4.8
1979-07-29 21:27:02.980 ,4,0,,0,0.,4.8,0.,4.8,,0,0.,4.8,0.,4.8
1979-07-29 21:27:07.780 ,4,0,,0,0.,4.8,0.,4.8,,0,0.,4.8,1.,4.8
1979-07-29 21:27:12.580 ,5,0,,0,0.,4.8,0.,4.8,,0,0.,4.8,1.,4.8
1979-07-29 21:27:17.380 ,5,0,,0,1.,4.8,0.,4.8,,0,0.,4.8,0.,4.8
1979-07-29 21:27:22.180 ,5,0,,0,1.,4.8,0.,4.8,,0,0.,4.8,1.,4.8
1979-07-29 21:27:26.980 ,5,0,,0,5.,4.8,0.,4.8,,0,0.,4.8,0.,4.8
1979-07-29 21:27:31.780 ,5,0,,0,3.,4.8,0.,4.8,,0,0.,4.8,1.,4.8
1979-07-29 21:27:36.580 ,5,0,,0,4.,4.8,0.,4.8,,0,0.,4.8,1.,4.8
1979-07-29 21:27:41.380 ,5,0,,0,5.,4.8,0.,4.8,,0,0.,4.8,1.,4.8
1979-07-29 21:27:46.180 ,5,0,,0,2.,4.8,0.,4.8,,0,0.,4.8,1.,4.8
1979-07-29 21:27:50.980 ,5,0,,0,0.,4.8,0.,4.8,,0,0.,4.8,1.,4.8
1979-07-29 21:27:55.780 ,5,0,,0,0.,4.8,0.,4.8,,0,0.,4.8,0.,4.8
1979-07-29 21:28:00.580 ,6,0,,0,0.,4.8,0.,4.8,,0,0.,4.8,0.,4.8
1979-07-29 21:28:05.380 ,6,0,,0,0.,4.8,0.,4.8,,0,0.,4.8,0.,4.8
1979-07-29 21:28:10.180 ,6,0,,0,2.,4.8,0.,4.8,,0,0.,4.8,1.,4.8
1979-07-29 21:28:14.980 ,6,0,,0,4.,4.8,0.,4.8,,0,0.,4.8,2.,4.8
1979-07-29 21:28:19.780 ,6,0,,0,8.,4.8,0.,4.8,,0,0.,4.8,5.,4.8
1979-07-29 21:28:24.580 ,6,0,,0,6.,4.8,0.,4.8,,0,0.,4.8,1.,4.8
1979-07-29 21:28:29.380 ,6,0,,0,6.,4.8,0.,4.8,,0,0.,4.8,0.,4.8
1979-07-29 21:28:34.180 ,6,0,,0,5.,4.8,0.,4.8,,0,0.,4.8,2.,4.8
1979-07-29 21:28:38.980 ,6,0,,0,0.,4.8,0.,4.8,,0,0.,4.8,1.,4.8
1979-07-29 21:28:43.780 ,6,0,,0,0.,4.8,0.,4.8,,0,0.,4.8,0.,4.8
1979-07-29 21:28:48.580 ,7,0,,0,0.,4.8,0.,4.8,,0,0.,4.8,3.,4.8
1979-07-29 21:28:53.380 ,7,0,,0,0.,4.8,0.,4.8,,0,0.,4.8,1.,4.8
1979-07-29 21:28:58.180 ,7,0,,0,1.,4.8,0.,4.8,,0,0.,4.8,0.,4.8
1979-07-29 21:29:02.980 ,7,0,,0,8.,4.8,0.,4.8,,0,1.,4.8,0.,4.8
1979-07-29 21:29:07.780 ,7,0,,0,14.,4.8,0.,4.8,,0,0.,4.8,1.,4.8
1979-07-29 21:29:12.580 ,7,0,,0,11.,4.8,0.,4.8,,0,0.,4.8,0.,4.8
1979-07-29 21:29:17.380 ,7,0,,0,13.,4.8,0.,4.8,,0,0.,4.8,0.,4.8
1979-07-29 21:29:22.180 ,7,0,,0,13.,4.8,0.,4.8,,0,0.,4.8,0.,4.8
1979-07-29 21:29:26.980 ,7,0,,0,0.,4.8,1.,4.8,,0,0.,4.8,0.,4.8
1979-07-29 21:29:31.780 ,7,0,,0,0.,4.8,0.,4.8,,0,0.,4.8,0.,4.8
1979-07-29 21:29:36.580 ,7,0,,0,0.,4.8,0.,4.8,,0,0.,4.8,0.,4.8
1979-07-29 21:29:41.380 ,7,0,,0,0.,4.8,0.,4.8,,0,0.,4.8,0.,4.8
1979-07-29 21:29:46.180 ,7,0,,0,4.,4.8,0.,4.8,,0,0.,4.8,0.,4.8
1979-07-29 21:29:50.980 ,7,0,,0,17.,4.8,0.,4.8,,0,0.,4.8,0.,4.8
1979-07-29 21:29:55.780 ,7,0,,0,11.,4.8,0.,4.8,,0,0.,4.8,0.,4.8
1979-07-29 21:30:00.580 ,7,0,,0,10.,4.8,0.,4.8,,0,0.,4.8,0.,4.8
1979-07-29 21:30:05.380 ,7,0,,0,5.,4.8,0.,4.8,,0,0.,4.8,0.,4.8
1979-07-29 21:30:10.180 ,7,0,,0,7.,4.8,0.,4.8,,0,0.,4.8,0.,4.8
1979-07-29 21:30:14.980 ,7,0,,0,0.,4.8,0.,4.8,,0,0.,4.8,0.,4.8
1979-07-29 21:30:19.780 ,7,0,,0,0.,4.8,0.,4.8,,0,0.,4.8,0.,4.8
1979-07-29 21:30:24.580 ,6,0,,0,0.,4.8,0.,4.8,,0,0.,4.8,0.,4.8
1979-07-29 21:30:29.380 ,6,0,,0,0.,4.8,0.,4.8,,0,0.,4.8,1.,4.8
1979-07-29 21:30:34.180 ,6,0,,0,0.,4.8,0.,4.8,,0,0.,4.8,4.,4.8